Location: Newark
(34.9500°N, 139.9667°E)
Time: 21:31:09
(UTC+00:00)

Vanguard 1 Rocket - Pass Details

Date: 17 December 2019
Orbit: 650 x 4226 km, 34.3° (Epoch: 25 January)

Event Time Altitude Azimuth Distance (km) Brightness Sun altitude
Rises 08:20:02 0° 227° (SW) 8,339 13.8 -10.1°
Reaches altitude 10° 08:25:54 10° 224° (SW) 7,411 13.1 -11.2°
Maximum altitude 08:50:56 59° 152° (SSE) 3,965 10.5 -16.0°
Enters shadow 09:03:49 22° 84° (E) 4,556 10.3 -18.5°
Drops below altitude 10° 09:07:11 10° 79° (E) 5,120 - -19.2°
Sets 09:10:21 0° 75° (ENE) 5,752 - -19.8°
